Location: Unspecified
(0.0000°N, 0.0000°E)
Time: 20:04:46
(UTC+00:00)

ISS - Pass Details

Date: 17 June 2019
Orbit: 407 x 419 km, 51.6° (Epoch: 26 June)

Event Time Altitude Azimuth Distance (km) Brightness Sun altitude
Rises 05:29:01 0° 188° (S) 2,339 -0.3 -7.3°
Reaches altitude 10° 05:31:45 10° 164° (SSE) 1,472 -1.1 -6.7°
Maximum altitude 05:33:46 15° 126° (SE) 1,192 -1.0 -6.2°
Drops below altitude 10° 05:35:47 10° 88° (E) 1,465 0.3 -5.7°
Sets 05:38:29 0° 64° (ENE) 2,320 3.0 -5.1°
